Weather History for KSWF - March, 2013

Change the Weather History Date:

Tuesday, March 12, 2013

  Actual Average Record
Temperature  
Mean Temperature 48 °F -  
Max Temperature 55 °F 42 °F 73 °F (1977)
Min Temperature 39 °F 24 °F -112 °F (1998)
Degree Days  
Heating Degree Days 16    
Moisture  
Dew Point 46 °F    
Average Humidity 88    
Maximum Humidity 94    
Minimum Humidity 76    
Precipitation  
Precipitation 0.00 in - - ()
Sea Level Pressure  
Sea Level Pressure 29.85 in    
Wind  
Wind Speed 10 mph (SSW)    
Max Wind Speed 20 mph    
Max Gust Speed 29 mph    
Visibility 7 miles    
Events Rain    
Averages and records for this station are not official NWS values.
T = Trace of Precipitation, MM = Missing Value Source: NWS Daily Summary

Daily Weather History Graph

Daily Weather History Graph

Search for Another Location

Airport or City:

Trip Planner

Search our weather history database for the weather conditions in past years. The results will help you decide how hot, cold, wet, or windy it might be!

Date:

Astronomy

Mar. 12, 2013 Rise Set
Actual Time 7:12 AM EDT 6:59 PM EDT
Civil Twilight 6:45 AM EDT 7:27 PM EDT
Nautical Twilight 6:13 AM EDT 7:59 PM EDT
Astronomical Twilight 5:40 AM EDT 8:32 PM EDT
Moon 7:16 AM EDT (3/12) 8:13 PM EDT (3/12)
Length of Visible Light 12h 42m
Length of Day
11h 47m
New Moon, 1% of the Moon is Illuminated
Mar 12
New Moon
Mar 19
First Quarter
Mar 27
Full
Apr 3
Last Quarter
Apr 10
New

Hourly Weather History & Observations

Time (EDT) Temp. Windchill Dew Point Humidity Pressure Visibility Wind Dir Wind Speed Gust Speed Precip Events Conditions
12:45 AM 50.0 °F - 46.4 °F 87% 30.04 in 6.0 mi SSE 5.8 mph - N/A   Overcast
1:45 AM 51.8 °F - 46.4 °F 82% 30.01 in 8.0 mi SW 9.2 mph - N/A   Overcast
2:45 AM 51.8 °F - 46.4 °F 82% 29.99 in 8.0 mi SSW 9.2 mph - N/A   Overcast
3:45 AM 51.8 °F - 46.4 °F 82% 29.98 in 8.0 mi South 9.2 mph - N/A Rain Light Rain
4:45 AM 50.0 °F - 48.2 °F 94% 29.96 in 6.0 mi SSE 11.5 mph - N/A Rain Light Rain
6:50 AM 51.8 °F - 48.2 °F 88% 29.93 in 6.0 mi SSE 11.5 mph 20.7 mph N/A Rain Light Rain
7:45 AM 50.0 °F - 48.2 °F 94% 29.92 in 6.0 mi SSE 11.5 mph 20.7 mph N/A Rain Light Rain
8:45 AM 51.8 °F - 48.2 °F 88% 29.91 in 5.0 mi SSE 15.0 mph 23.0 mph N/A Rain Light Rain
10:55 AM 51.8 °F - 50.0 °F 94% 29.87 in 5.0 mi SSE 11.5 mph 20.7 mph N/A Rain Light Rain
12:50 PM 51.8 °F - 50.0 °F 94% 29.81 in 4.0 mi SSE 11.5 mph 20.7 mph N/A Rain Light Rain
1:45 PM 53.6 °F - 51.8 °F 94% 29.76 in 4.0 mi South 11.5 mph 18.4 mph N/A Rain Light Rain
2:50 PM 53.6 °F - 51.8 °F 94% 29.72 in 3.0 mi South 11.5 mph 24.2 mph N/A Rain Light Rain
3:45 PM 53.6 °F - 51.8 °F 94% 29.69 in 3.0 mi South 8.1 mph 24.2 mph N/A Rain Light Rain
4:45 PM 55.4 °F - 53.6 °F 94% 29.68 in 3.0 mi South 11.5 mph - N/A Rain Light Rain
5:45 PM 53.6 °F - 51.8 °F 94% 29.68 in 2.0 mi SW 8.1 mph - N/A   Overcast
7:45 PM 46.4 °F 39.0 °F 39.2 °F 76% 29.76 in 10.0 mi WNW 19.6 mph 28.8 mph N/A   Mostly Cloudy
8:45 PM 42.8 °F 37.0 °F 37.4 °F 81% 29.81 in 10.0 mi WNW 10.4 mph 20.7 mph N/A   Mostly Cloudy
9:45 PM 42.8 °F 37.0 °F 37.4 °F 81% 29.84 in 10.0 mi WNW 10.4 mph - N/A   Mostly Cloudy
10:45 PM 42.8 °F 39.3 °F 37.4 °F 81% 29.85 in 15.0 mi NW 5.8 mph - N/A   Mostly Cloudy
11:45 PM 39.2 °F 35.9 °F 35.6 °F 87% 29.85 in 20.0 mi NNW 4.6 mph - N/A   Scattered Clouds